ROLR73 YMES-YMES

Flight info

Callsign ROLR73
Flight time 1h 15m
Altitude 7000
Route DCT
Aircraft PC21/L-S/C

Departure

Time 2026-05-06 08:26
Airport RAAF Base East Sale (YMES)

Arrival

Time 2026-05-06 09:42
Airport RAAF Base East Sale (YMES)
Time Latitude Longitude Altitude Speed Heading
2026-05-06 08:12 -38.09905 147.13631 26 ft 0 kts 188°
2026-05-06 08:20 -38.09919 147.13628 27 ft 5 kts 183°
2026-05-06 08:20 -38.09933 147.13681 26 ft 12 kts 95°
2026-05-06 08:20 -38.09948 147.13800 26 ft 15 kts 99°
2026-05-06 08:20 -38.09956 147.13887 26 ft 0 kts 59°
2026-05-06 08:21 -38.09934 147.13889 27 ft 7 kts
2026-05-06 08:21 -38.09922 147.13999 28 ft 13 kts 94°
2026-05-06 08:21 -38.09863 147.14041 29 ft 8 kts 22°
2026-05-06 08:21 -38.09859 147.14137 26 ft 18 kts 98°
2026-05-06 08:22 -38.09881 147.14305 23 ft 20 kts 99°
2026-05-06 08:22 -38.09901 147.14485 23 ft 21 kts 99°
2026-05-06 08:22 -38.09925 147.14678 19 ft 23 kts 96°
2026-05-06 08:22 -38.09950 147.14872 19 ft 21 kts 91°
2026-05-06 08:23 -38.09961 147.14974 20 ft 14 kts 102°
2026-05-06 08:23 -38.09979 147.15103 22 ft 15 kts 99°
2026-05-06 08:23 -38.09993 147.15216 24 ft 0 kts 88°
2026-05-06 08:24 -38.09990 147.15255 24 ft 0 kts 65°
2026-05-06 08:24 -38.09987 147.15263 24 ft 0 kts 63°
2026-05-06 08:24 -38.09972 147.15291 25 ft 4 kts 36°
2026-05-06 08:24 -38.09968 147.15294 27 ft 0 kts 36°
2026-05-06 08:25 -38.09968 147.15295 27 ft 1 kts 36°
2026-05-06 08:25 -38.09900 147.15326 26 ft 14 kts
2026-05-06 08:25 -38.09871 147.15281 24 ft 3 kts 276°
2026-05-06 08:25 -38.09870 147.15274 23 ft 1 kts 279°
2026-05-06 08:26 -38.09846 147.15097 22 ft 55 kts 279°
2026-05-06 08:26 -38.09750 147.14310 41 ft 117 kts 279°
2026-05-06 08:26 -38.09606 147.13136 271 ft 154 kts 278°
2026-05-06 08:26 -38.09353 147.11730 742 ft 171 kts 304°
2026-05-06 08:27 -38.08305 147.11117 1114 ft 188 kts 13°
2026-05-06 08:27 -38.07714 147.12528 1081 ft 217 kts 97°
2026-05-06 08:27 -38.07946 147.14519 943 ft 239 kts 99°
2026-05-06 08:27 -38.08186 147.16551 946 ft 219 kts 99°
2026-05-06 08:28 -38.08399 147.18305 939 ft 167 kts 101°
2026-05-06 08:28 -38.09064 147.19092 768 ft 132 kts 181°
2026-05-06 08:28 -38.09870 147.18531 531 ft 140 kts 236°
2026-05-06 08:28 -38.10112 147.17337 321 ft 145 kts 271°
2026-05-06 08:29 -38.09976 147.16072 165 ft 143 kts 280°
2026-05-06 08:29 -38.09826 147.14919 26 ft 118 kts 279°
2026-05-06 08:29 -38.09714 147.14027 65 ft 111 kts 278°
2026-05-06 08:29 -38.09566 147.12882 346 ft 154 kts 279°
2026-05-06 08:30 -38.09378 147.11398 640 ft 183 kts 283°
2026-05-06 08:30 -38.08437 147.10353 1012 ft 206 kts 360°
2026-05-06 08:30 -38.07417 147.11533 1088 ft 237 kts 87°
2026-05-06 08:30 -38.07602 147.13696 1078 ft 253 kts 98°
2026-05-06 08:31 -38.07865 147.15936 1087 ft 261 kts 98°
2026-05-06 08:31 -38.08131 147.18228 991 ft 270 kts 98°
2026-05-06 08:31 -38.08422 147.20608 991 ft 276 kts 100°
2026-05-06 08:31 -38.09500 147.22396 1207 ft 267 kts 169°
2026-05-06 08:32 -38.10758 147.21108 950 ft 270 kts 264°
2026-05-06 08:32 -38.10551 147.18697 577 ft 276 kts 279°
2026-05-06 08:32 -38.10223 147.16304 477 ft 274 kts 280°
2026-05-06 08:32 -38.09896 147.13921 460 ft 270 kts 281°
2026-05-06 08:33 -38.08640 147.13784 815 ft 245 kts 69°
2026-05-06 08:33 -38.08697 147.15806 790 ft 221 kts 97°
2026-05-06 08:33 -38.08865 147.17559 689 ft 164 kts 98°
2026-05-06 08:33 -38.09478 147.18367 471 ft 143 kts 196°
2026-05-06 08:34 -38.10050 147.17381 327 ft 153 kts 263°
2026-05-06 08:34 -38.09812 147.14812 23 ft 116 kts 279°
2026-05-06 08:34 -38.09719 147.14052 26 ft 91 kts 278°
2026-05-06 08:35 -38.09581 147.13023 236 ft 147 kts 280°
2026-05-06 08:35 -38.09356 147.11497 627 ft 197 kts 281°
2026-05-06 08:35 -38.08741 147.09986 1199 ft 201 kts 332°
2026-05-06 08:35 -38.07508 147.10459 1291 ft 225 kts 60°
2026-05-06 08:36 -38.07437 147.12544 1043 ft 254 kts 97°
2026-05-06 08:36 -38.07707 147.14811 1013 ft 262 kts 98°
2026-05-06 08:36 -38.07930 147.17099 916 ft 268 kts 97°
2026-05-06 08:36 -38.08163 147.19049 909 ft 168 kts 99°
2026-05-06 08:37 -38.08532 147.20325 878 ft 154 kts 142°
2026-05-06 08:37 -38.09556 147.20415 690 ft 158 kts 210°
2026-05-06 08:37 -38.10168 147.19303 555 ft 160 kts 256°
2026-05-06 08:37 -38.10185 147.17910 390 ft 163 kts 276°
2026-05-06 08:38 -38.10018 147.16476 221 ft 166 kts 279°
2026-05-06 08:38 -38.09843 147.15056 32 ft 153 kts 278°
2026-05-06 08:38 -38.09691 147.13867 71 ft 139 kts 279°
2026-05-06 08:38 -38.09519 147.12540 244 ft 171 kts 279°
2026-05-06 08:39 -38.09323 147.10894 585 ft 204 kts 279°
2026-05-06 08:39 -38.08455 147.09601 1128 ft 212 kts 347°
2026-05-06 08:39 -38.07279 147.10511 1143 ft 240 kts 83°
2026-05-06 08:39 -38.07465 147.12724 998 ft 259 kts 98°
2026-05-06 08:40 -38.07754 147.14939 998 ft 261 kts 97°
2026-05-06 08:40 -38.07960 147.17120 903 ft 216 kts 96°
2026-05-06 08:40 -38.08095 147.18750 789 ft 163 kts 96°
2026-05-06 08:40 -38.08552 147.19913 667 ft 151 kts 158°
2026-05-06 08:41 -38.09543 147.19675 556 ft 148 kts 217°
2026-05-06 08:41 -38.10106 147.18630 472 ft 145 kts 254°
2026-05-06 08:41 -38.10151 147.17352 330 ft 148 kts 277°
2026-05-06 08:41 -38.09974 147.16070 188 ft 144 kts 280°
2026-05-06 08:42 -38.09832 147.14970 24 ft 111 kts 279°
2026-05-06 08:42 -38.09723 147.14094 51 ft 112 kts 279°
2026-05-06 08:42 -38.09574 147.12898 254 ft 169 kts 278°
2026-05-06 08:42 -38.09394 147.11161 591 ft 220 kts 277°
2026-05-06 08:43 -38.08487 147.09977 1090 ft 219 kts 12°
2026-05-06 08:43 -38.07435 147.11424 871 ft 250 kts 79°
2026-05-06 08:43 -38.07639 147.13667 807 ft 263 kts 100°
2026-05-06 08:43 -38.07976 147.15962 953 ft 270 kts 101°
2026-05-06 08:44 -38.08366 147.18398 1202 ft 289 kts 99°
2026-05-06 08:44 -38.08340 147.20939 1363 ft 303 kts 79°
2026-05-06 08:44 -38.07600 147.23475 1521 ft 312 kts 61°
2026-05-06 08:44 -38.06553 147.25911 1763 ft 316 kts 61°
2026-05-06 08:45 -38.05490 147.28340 2147 ft 303 kts 58°
2026-05-06 08:45 -38.04288 147.30639 2033 ft 321 kts 53°
2026-05-06 08:45 -38.02930 147.32944 1997 ft 330 kts 52°
2026-05-06 08:45 -38.01645 147.35428 1461 ft 337 kts 63°
2026-05-06 08:46 -38.00572 147.38016 1738 ft 331 kts 61°
2026-05-06 08:46 -37.99444 147.40435 2399 ft 315 kts 58°
2026-05-06 08:46 -37.98169 147.42716 2531 ft 321 kts 45°
2026-05-06 08:46 -37.96203 147.43858 3064 ft 308 kts
2026-05-06 08:47 -37.94512 147.42712 3755 ft 277 kts 303°
2026-05-06 08:47 -37.94183 147.40393 3622 ft 271 kts 250°
2026-05-06 08:47 -37.95594 147.39117 3621 ft 268 kts 181°
2026-05-06 08:47 -37.97283 147.40160 3285 ft 288 kts 125°
2026-05-06 08:48 -37.97577 147.42566 3415 ft 286 kts 69°
2026-05-06 08:48 -37.96137 147.43994 3695 ft 278 kts
2026-05-06 08:48 -37.94664 147.42715 3655 ft 282 kts 284°
2026-05-06 08:48 -37.95354 147.40499 3260 ft 294 kts 216°
2026-05-06 08:49 -37.97355 147.39641 2157 ft 322 kts 191°
2026-05-06 08:49 -37.99577 147.39143 1630 ft 321 kts 190°
2026-05-06 08:49 -38.01709 147.38788 1871 ft 299 kts 179°
2026-05-06 08:49 -38.03581 147.39686 1986 ft 291 kts 141°
2026-05-06 08:50 -38.04958 147.41576 1822 ft 293 kts 131°
2026-05-06 08:50 -38.06609 147.42941 1807 ft 288 kts 176°
2026-05-06 08:50 -38.07792 147.41391 1242 ft 295 kts 284°
2026-05-06 08:50 -38.06088 147.40180 817 ft 300 kts 351°
2026-05-06 08:51 -38.04068 147.39788 949 ft 288 kts 351°
2026-05-06 08:51 -38.02122 147.39423 1135 ft 279 kts 351°
2026-05-06 08:51 -38.00193 147.39037 1054 ft 283 kts 350°
2026-05-06 08:51 -37.98247 147.38716 1196 ft 278 kts 354°
2026-05-06 08:52 -37.96489 147.37936 1450 ft 274 kts 306°
2026-05-06 08:52 -37.96963 147.35951 1427 ft 279 kts 203°
2026-05-06 08:52 -37.98938 147.35773 1232 ft 287 kts 178°
2026-05-06 08:52 -38.00907 147.35870 1176 ft 286 kts 178°
2026-05-06 08:53 -38.02893 147.35878 1106 ft 286 kts 181°
2026-05-06 08:53 -38.04880 147.35805 1081 ft 284 kts 182°
2026-05-06 08:53 -38.06807 147.35797 1567 ft 265 kts 169°
2026-05-06 08:53 -38.07876 147.37350 1987 ft 263 kts 81°
2026-05-06 08:54 -38.06409 147.38420 1466 ft 284 kts 346°
2026-05-06 08:54 -38.04474 147.37769 1151 ft 292 kts 356°
2026-05-06 08:54 -38.02437 147.38115 772 ft 299 kts 11°
2026-05-06 08:54 -38.00421 147.38652 557 ft 298 kts 12°
2026-05-06 08:55 -37.98627 147.39131 1930 ft 88 kts
2026-05-06 08:55 -37.98791 147.38728 3252 ft 22 kts 110°
2026-05-06 08:55 -37.99246 147.40568 928 ft 288 kts 139°
2026-05-06 08:55 -38.01156 147.40781 805 ft 284 kts 186°
2026-05-06 08:56 -38.03140 147.40547 698 ft 287 kts 185°
2026-05-06 08:56 -38.05119 147.40352 725 ft 284 kts 185°
2026-05-06 08:56 -38.07043 147.40158 920 ft 274 kts 184°
2026-05-06 08:56 -38.08964 147.39916 954 ft 278 kts 193°
2026-05-06 08:57 -38.09813 147.38216 1054 ft 276 kts 310°
2026-05-06 08:57 -38.07964 147.37796 875 ft 285 kts
2026-05-06 08:57 -38.05985 147.37952 878 ft 284 kts 359°
2026-05-06 08:57 -38.04005 147.37952 762 ft 288 kts
2026-05-06 08:58 -38.01999 147.38225 561 ft 292 kts
2026-05-06 08:58 -37.99995 147.38568 517 ft 289 kts
2026-05-06 08:58 -37.98589 147.38707 3107 ft 86 kts 302°
2026-05-06 08:58 -37.98606 147.38953 854 ft 268 kts 105°
2026-05-06 08:59 -38.00105 147.40078 843 ft 278 kts 189°
2026-05-06 08:59 -38.01943 147.39422 924 ft 279 kts 189°
2026-05-06 08:59 -38.03822 147.39818 1201 ft 278 kts 159°
2026-05-06 08:59 -38.05716 147.40168 1264 ft 280 kts 194°
2026-05-06 09:00 -38.06660 147.38360 1259 ft 278 kts 291°
2026-05-06 09:00 -38.04968 147.37721 784 ft 294 kts 14°
2026-05-06 09:00 -38.02968 147.38238 673 ft 293 kts 10°
2026-05-06 09:00 -38.00952 147.38709 503 ft 294 kts 10°
2026-05-06 09:01 -37.98976 147.39153 898 ft 229 kts
2026-05-06 09:01 -37.98733 147.38684 2916 ft 27 kts 164°
2026-05-06 09:01 -37.99196 147.40470 838 ft 279 kts 137°
2026-05-06 09:01 -38.00961 147.41355 1241 ft 273 kts 163°
2026-05-06 09:02 -38.02810 147.42081 1209 ft 282 kts 163°
2026-05-06 09:02 -38.04704 147.42813 1149 ft 285 kts 163°
2026-05-06 09:02 -38.06581 147.43566 1262 ft 281 kts 163°
2026-05-06 09:02 -38.08466 147.43520 1291 ft 280 kts 212°
2026-05-06 09:03 -38.09094 147.41381 1187 ft 282 kts 290°
2026-05-06 09:03 -38.07575 147.39949 756 ft 295 kts 348°
2026-05-06 09:03 -38.05561 147.39635 879 ft 283 kts 349°
2026-05-06 09:03 -38.03952 147.38414 1190 ft 276 kts 303°
2026-05-06 09:04 -38.03822 147.36109 1512 ft 271 kts 244°
2026-05-06 09:04 -38.05361 147.34856 1363 ft 285 kts 182°
2026-05-06 09:04 -38.07095 147.35905 1280 ft 287 kts 123°
2026-05-06 09:04 -38.06612 147.37986 1199 ft 282 kts 19°
2026-05-06 09:05 -38.04645 147.37864 861 ft 291 kts 356°
2026-05-06 09:05 -38.02607 147.37988 607 ft 295 kts
2026-05-06 09:05 -38.00600 147.38195 578 ft 286 kts
2026-05-06 09:05 -37.99827 147.37671 2434 ft 62 kts 205°
2026-05-06 09:06 -38.00335 147.39502 838 ft 259 kts 130°
2026-05-06 09:06 -38.01672 147.40863 1792 ft 246 kts 144°
2026-05-06 09:06 -38.03195 147.42012 1766 ft 268 kts 154°
2026-05-06 09:06 -38.04929 147.42863 2074 ft 265 kts 172°
2026-05-06 09:07 -38.06693 147.42513 2258 ft 265 kts 212°
2026-05-06 09:07 -38.07663 147.40571 2133 ft 280 kts 265°
2026-05-06 09:07 -38.06776 147.38504 1944 ft 288 kts 330°
2026-05-06 09:07 -38.04782 147.38006 1444 ft 302 kts
2026-05-06 09:08 -38.02672 147.38300 934 ft 310 kts
2026-05-06 09:08 -38.00518 147.38702 458 ft 313 kts
2026-05-06 09:08 -37.98645 147.39034 1913 ft 72 kts 345°
2026-05-06 09:08 -37.98773 147.38704 1297 ft 216 kts 101°
2026-05-06 09:09 -37.99699 147.40607 1196 ft 263 kts 181°
2026-05-06 09:09 -38.01400 147.39892 1362 ft 274 kts 198°
2026-05-06 09:09 -38.03327 147.39638 1302 ft 288 kts 168°
2026-05-06 09:09 -38.05263 147.40480 1193 ft 297 kts 159°
2026-05-06 09:10 -38.07110 147.40093 1284 ft 287 kts 234°
2026-05-06 09:10 -38.06801 147.37811 728 ft 298 kts 325°
2026-05-06 09:10 -38.04806 147.37605 532 ft 297 kts 10°
2026-05-06 09:10 -38.02818 147.38205 507 ft 291 kts 14°
2026-05-06 09:11 -38.00838 147.38673 461 ft 288 kts
2026-05-06 09:11 -37.98923 147.39021 833 ft 214 kts
2026-05-06 09:11 -37.98688 147.38645 1596 ft 148 kts 105°
2026-05-06 09:11 -37.99698 147.39825 1056 ft 238 kts 194°
2026-05-06 09:12 -38.01282 147.39080 1233 ft 254 kts 200°
2026-05-06 09:12 -38.02999 147.38298 1264 ft 268 kts 198°
2026-05-06 09:12 -38.04760 147.37572 1715 ft 262 kts 196°
2026-05-06 09:12 -38.06464 147.36935 2367 ft 250 kts 195°
2026-05-06 09:13 -38.08182 147.36645 2643 ft 260 kts 171°
2026-05-06 09:13 -38.09977 147.36532 2583 ft 273 kts 217°
2026-05-06 09:13 -38.10045 147.34403 2208 ft 284 kts 322°
2026-05-06 09:13 -38.08288 147.34822 1591 ft 301 kts 49°
2026-05-06 09:14 -38.06876 147.36776 1460 ft 297 kts 31°
2026-05-06 09:14 -38.04974 147.37662 1414 ft 292 kts
2026-05-06 09:14 -38.02938 147.38130 892 ft 303 kts
2026-05-06 09:14 -38.00832 147.38575 448 ft 307 kts
2026-05-06 09:15 -37.98801 147.38954 955 ft 213 kts
2026-05-06 09:15 -37.98686 147.38475 2030 ft 114 kts 112°
2026-05-06 09:15 -37.99481 147.40176 1217 ft 241 kts 182°
2026-05-06 09:15 -38.00957 147.39305 1770 ft 250 kts 210°
2026-05-06 09:16 -38.02613 147.38310 1537 ft 276 kts 203°
2026-05-06 09:16 -38.04480 147.37769 1594 ft 281 kts 167°
2026-05-06 09:16 -38.05839 147.39360 1833 ft 282 kts 105°
2026-05-06 09:16 -38.05581 147.41824 1549 ft 294 kts 63°
2026-05-06 09:17 -38.04219 147.43762 1182 ft 301 kts 30°
2026-05-06 09:17 -38.02220 147.44269 1046 ft 297 kts 351°
2026-05-06 09:17 -38.00451 147.43041 845 ft 296 kts 308°
2026-05-06 09:17 -37.99719 147.40621 602 ft 297 kts 283°
2026-05-06 09:18 -37.99382 147.38154 845 ft 275 kts 278°
2026-05-06 09:18 -37.99124 147.35831 1113 ft 267 kts 279°
2026-05-06 09:18 -37.98556 147.33542 1066 ft 279 kts 303°
2026-05-06 09:18 -37.97449 147.31537 1185 ft 275 kts 291°
2026-05-06 09:19 -37.97802 147.29330 1334 ft 280 kts 215°
2026-05-06 09:19 -37.99240 147.30288 1132 ft 285 kts 102°
2026-05-06 09:19 -37.99470 147.32860 699 ft 298 kts 98°
2026-05-06 09:19 -37.99789 147.35440 620 ft 289 kts 100°
2026-05-06 09:20 -38.00172 147.37873 800 ft 279 kts 102°
2026-05-06 09:20 -38.00583 147.40247 771 ft 282 kts 103°
2026-05-06 09:20 -38.01000 147.42685 725 ft 284 kts 102°
2026-05-06 09:20 -38.01424 147.45139 700 ft 285 kts 104°
2026-05-06 09:21 -38.02234 147.47415 712 ft 285 kts 123°
2026-05-06 09:21 -38.02944 147.49664 967 ft 274 kts 73°
2026-05-06 09:21 -38.01429 147.49883 1078 ft 275 kts 308°
2026-05-06 09:21 -38.00955 147.47527 916 ft 283 kts 277°
2026-05-06 09:22 -38.00714 147.45070 1027 ft 278 kts 277°
2026-05-06 09:22 -38.00486 147.42614 911 ft 283 kts 277°
2026-05-06 09:22 -38.00240 147.40186 926 ft 275 kts 277°
2026-05-06 09:22 -37.99924 147.37838 1257 ft 265 kts 282°
2026-05-06 09:23 -37.99437 147.35567 1284 ft 274 kts 287°
2026-05-06 09:23 -37.98725 147.33297 1401 ft 276 kts 295°
2026-05-06 09:23 -37.97888 147.31130 1807 ft 271 kts 296°
2026-05-06 09:23 -37.97660 147.28857 2078 ft 272 kts 234°
2026-05-06 09:24 -37.98987 147.29477 1485 ft 293 kts 97°
2026-05-06 09:24 -37.99208 147.32117 868 ft 309 kts 99°
2026-05-06 09:24 -37.99586 147.34784 470 ft 310 kts 100°
2026-05-06 09:24 -37.99950 147.37410 582 ft 291 kts 100°
2026-05-06 09:25 -38.00302 147.39849 858 ft 274 kts 101°
2026-05-06 09:25 -38.00464 147.42229 1160 ft 272 kts 74°
2026-05-06 09:25 -37.99024 147.43533 1225 ft 279 kts 359°
2026-05-06 09:25 -37.97533 147.42208 1236 ft 280 kts 290°
2026-05-06 09:26 -37.97821 147.39876 1107 ft 284 kts 230°
2026-05-06 09:26 -37.99650 147.38916 699 ft 295 kts 200°
2026-05-06 09:26 -37.99733 147.36630 651 ft 267 kts 280°
2026-05-06 09:26 -37.99851 147.36931 2182 ft 180 kts 94°
2026-05-06 09:27 -38.00120 147.39253 451 ft 297 kts 89°
2026-05-06 09:27 -37.98800 147.39250 586 ft 276 kts 270°
2026-05-06 09:27 -38.00102 147.38997 594 ft 276 kts 108°
2026-05-06 09:27 -38.00347 147.41224 1796 ft 232 kts 77°
2026-05-06 09:28 -37.99123 147.42388 2031 ft 255 kts
2026-05-06 09:28 -37.97290 147.42409 1992 ft 273 kts 357°
2026-05-06 09:28 -37.96075 147.40904 1992 ft 279 kts 262°
2026-05-06 09:28 -37.97500 147.39432 1391 ft 298 kts 193°
2026-05-06 09:29 -37.99602 147.38899 581 ft 315 kts 199°
2026-05-06 09:29 -37.99738 147.36525 954 ft 211 kts 281°
2026-05-06 09:29 -37.99834 147.37091 2140 ft 160 kts 108°
2026-05-06 09:29 -38.00064 147.39453 483 ft 295 kts 60°
2026-05-06 09:30 -37.98922 147.38822 511 ft 274 kts 242°
2026-05-06 09:30 -38.00111 147.39420 409 ft 278 kts 95°
2026-05-06 09:30 -38.00485 147.41752 947 ft 266 kts 115°
2026-05-06 09:30 -38.01577 147.43658 1123 ft 273 kts 131°
2026-05-06 09:31 -38.02858 147.45497 1145 ft 281 kts 134°
2026-05-06 09:31 -38.04199 147.47260 1195 ft 281 kts 136°
2026-05-06 09:31 -38.05842 147.48551 1180 ft 281 kts 166°
2026-05-06 09:31 -38.07651 147.47983 1073 ft 281 kts 228°
2026-05-06 09:32 -38.07790 147.45651 927 ft 283 kts 290°
2026-05-06 09:32 -38.07110 147.43325 936 ft 280 kts 290°
2026-05-06 09:32 -38.06516 147.41032 1196 ft 267 kts 288°
2026-05-06 09:32 -38.05772 147.38818 835 ft 286 kts 305°
2026-05-06 09:33 -38.04049 147.37841 810 ft 284 kts
2026-05-06 09:33 -38.02116 147.38276 564 ft 290 kts 11°
2026-05-06 09:33 -38.00111 147.38770 303 ft 295 kts 11°
2026-05-06 09:33 -37.98649 147.39054 2488 ft 50 kts 243°
2026-05-06 09:34 -37.98808 147.39343 573 ft 274 kts 101°
2026-05-06 09:34 -38.00129 147.40488 746 ft 276 kts 192°
2026-05-06 09:34 -38.02055 147.40210 832 ft 280 kts 174°
2026-05-06 09:34 -38.04004 147.40549 830 ft 285 kts 172°
2026-05-06 09:35 -38.05825 147.40312 1714 ft 261 kts 218°
2026-05-06 09:35 -38.05841 147.38267 1536 ft 280 kts 315°
2026-05-06 09:35 -38.03967 147.37994 1410 ft 286 kts
2026-05-06 09:35 -38.01936 147.38429 855 ft 308 kts
2026-05-06 09:36 -37.99774 147.38919 430 ft 318 kts 10°
2026-05-06 09:36 -37.98808 147.38907 3829 ft 142 kts 266°
2026-05-06 09:36 -37.98965 147.39891 906 ft 301 kts 111°
2026-05-06 09:36 -38.00735 147.40895 1208 ft 290 kts 171°
2026-05-06 09:37 -38.02764 147.40803 1195 ft 295 kts 201°
2026-05-06 09:37 -38.03963 147.38885 1197 ft 298 kts 257°
2026-05-06 09:37 -38.04349 147.36301 1256 ft 298 kts 261°
2026-05-06 09:37 -38.04660 147.33694 1312 ft 299 kts 262°
2026-05-06 09:38 -38.04913 147.31122 1487 ft 290 kts 266°
2026-05-06 09:38 -38.05369 147.28645 1585 ft 293 kts 238°
2026-05-06 09:38 -38.06898 147.26917 1561 ft 299 kts 217°
2026-05-06 09:38 -38.08581 147.25329 1473 ft 304 kts 216°
2026-05-06 09:39 -38.10225 147.23655 1201 ft 299 kts 228°
2026-05-06 09:39 -38.10761 147.21372 846 ft 266 kts 275°
2026-05-06 09:39 -38.10497 147.19009 569 ft 276 kts 279°
2026-05-06 09:39 -38.10172 147.16608 304 ft 276 kts 279°
2026-05-06 09:40 -38.09870 147.14184 316 ft 279 kts 278°
2026-05-06 09:40 -38.09040 147.12685 850 ft 229 kts 42°
2026-05-06 09:40 -38.08800 147.16254 729 ft 164 kts 94°
2026-05-06 09:41 -38.09052 147.17581 712 ft 156 kts 134°
2026-05-06 09:41 -38.09927 147.17640 504 ft 132 kts 227°
2026-05-06 09:41 -38.10047 147.16520 247 ft 142 kts 281°
2026-05-06 09:41 -38.09878 147.15333 46 ft 121 kts 279°
2026-05-06 09:42 -38.09768 147.14453 22 ft 82 kts 279°
2026-05-06 09:42 -38.09694 147.13837 28 ft 62 kts 281°
2026-05-06 09:42 -38.09669 147.13511 25 ft 17 kts 243°
2026-05-06 09:42 -38.09749 147.13482 24 ft 17 kts 187°
2026-05-06 09:43 -38.09851 147.13472 26 ft 8 kts 150°
2026-05-06 09:43 -38.09869 147.13577 27 ft 15 kts 101°
2026-05-06 09:43 -38.09879 147.13634 26 ft 2 kts 139°
2026-05-06 09:43 -38.09899 147.13632 29 ft 2 kts 188°
2026-05-06 09:44 -38.09905 147.13631 27 ft 0 kts 188°